Ann Arbor, MI

8:03 PM EDT on July 27, 2017 (GMT -0400)
Ann Arbor Municipal

Weather History for KARB - December, 2012

Change the Weather History Date:

Monday, December 3, 2012

  Actual Average Record
Temperature  
Mean Temperature 49 °F -  
Max Temperature 61 °F 40 °F 64 °F (1998)
Min Temperature 37 °F 25 °F -2 °F (2002)
Degree Days  
Heating Degree Days 16    
Moisture  
Dew Point 50 °F    
Average Humidity 96    
Maximum Humidity 100    
Minimum Humidity 86    
Precipitation  
Precipitation 0.01 in - - ()
Sea Level Pressure  
Sea Level Pressure 30.05 in    
Wind  
Wind Speed 3 mph (SSE)    
Max Wind Speed 13 mph    
Max Gust Speed 22 mph    
Visibility 2 miles    
Events Fog    
Averages and records for this station are not official NWS values.
T = Trace of Precipitation, MM = Missing Value Source: NWS Daily Summary

Daily Weather History Graph

Daily Weather History Graph

Search for Another Location

Airport or City:

Trip Planner

Search our weather history database for the weather conditions in past years. The results will help you decide how hot, cold, wet, or windy it might be!

Date:

Astronomy

Dec. 03, 2012 Rise Set
Actual Time 7:46 AM EST 5:03 PM EST
Civil Twilight 7:15 AM EST 5:34 PM EST
Nautical Twilight 6:40 AM EST 6:09 PM EST
Astronomical Twilight 6:06 AM EST 6:43 PM EST
Moon 9:52 PM EST (12/3) 11:06 AM EST (12/3)
Length of Visible Light 10h 19m
Length of Day
9h 16m
Waning Gibbous, 78% of the Moon is Illuminated
Dec 3
Waning Gibbous
Dec 6
Last Quarter
Dec 13
New
Dec 20
First Quarter
Dec 28
Full

Hourly Weather History & Observations

Time (EST) Temp. Windchill Dew Point Humidity Pressure Visibility Wind Dir Wind Speed Gust Speed Precip Events Conditions
12:12 AM 46.4 °F - 44.6 °F 93% 30.10 in 2.5 mi Calm Calm - N/A   Mostly Cloudy
12:21 AM 46.4 °F - 44.6 °F 93% 30.10 in 1.2 mi Calm Calm - N/A   Overcast
12:43 AM 44.6 °F - 42.8 °F 93% 30.11 in 0.5 mi Calm Calm - N/A Fog Fog
12:53 AM 45.0 °F - 45.0 °F 100% 30.12 in 0.5 mi Calm Calm - N/A Fog Fog
1:00 AM 46.4 °F - 44.6 °F 93% 30.11 in 1.8 mi Calm Calm - N/A   Mostly Cloudy
1:08 AM 42.8 °F - 42.8 °F 100% 30.11 in 0.8 mi Calm Calm - N/A   Mostly Cloudy
1:18 AM 44.6 °F - 44.6 °F 100% 30.10 in 0.2 mi Calm Calm - N/A Fog Fog
1:27 AM 42.8 °F - 42.8 °F 100% 30.10 in 0.2 mi Calm Calm - N/A Fog Fog
1:41 AM 41.0 °F - 39.2 °F 93% 30.10 in 0.2 mi Calm Calm - N/A Fog Fog
1:53 AM 37.9 °F - 37.9 °F 100% 30.12 in 0.2 mi Calm Calm - N/A Fog Fog
2:09 AM 39.2 °F - 39.2 °F 100% 30.11 in 0.2 mi Calm Calm - N/A Fog Fog
2:53 AM 42.1 °F 40.2 °F 41.0 °F 96% 30.13 in 0.5 mi SSW 3.5 mph - N/A Fog Fog
3:00 AM 42.8 °F - 42.8 °F 100% 30.13 in 1.5 mi Calm Calm - N/A   Overcast
3:21 AM 44.6 °F - 44.6 °F 100% 30.13 in 2.0 mi Calm Calm - N/A   Overcast
3:53 AM 46.0 °F 44.8 °F 45.0 °F 96% 30.13 in 2.0 mi NE 3.5 mph - N/A   Overcast
4:03 AM 46.4 °F 45.2 °F 44.6 °F 93% 30.11 in 2.0 mi ENE 3.5 mph - N/A   Overcast
4:44 AM 46.4 °F - 44.6 °F 93% 30.12 in 1.8 mi Calm Calm - N/A   Overcast
4:51 AM 46.4 °F 45.2 °F 46.4 °F 100% 30.12 in 2.0 mi ENE 3.5 mph - N/A   Overcast
4:53 AM 46.0 °F - 46.0 °F 100% 30.13 in 2.0 mi Calm Calm - N/A   Overcast
5:06 AM 46.4 °F - 46.4 °F 100% 30.12 in 1.8 mi Calm Calm - N/A   Overcast
5:22 AM 46.4 °F 45.2 °F 46.4 °F 100% 30.12 in 1.0 mi ENE 3.5 mph - N/A   Overcast
5:30 AM 46.4 °F 44.3 °F 46.4 °F 100% 30.13 in 0.5 mi ENE 4.6 mph - N/A Fog Fog
5:53 AM 46.9 °F - 46.9 °F 100% 30.14 in 0.2 mi ENE 3.5 mph - N/A Fog Fog
6:53 AM 46.9 °F - 46.9 °F 100% 30.12 in 0.2 mi ESE 4.6 mph - N/A Fog Fog
7:53 AM 48.0 °F - 46.9 °F 96% 30.12 in 0.2 mi ENE 4.6 mph - N/A Fog Fog
8:53 AM 48.0 °F - 48.0 °F 100% 30.12 in 0.2 mi ESE 3.5 mph - N/A Fog Fog
10:53 AM 52.0 °F - 51.1 °F 97% 30.11 in 0.2 mi SE 3.5 mph - 0.01 in Fog Fog
11:53 AM 53.1 °F - 53.1 °F 100% 30.08 in 0.2 mi Calm Calm - N/A Fog Fog
12:53 PM 55.0 °F - 54.0 °F 96% 30.04 in 0.2 mi SE 6.9 mph - N/A Fog Fog
1:53 PM 55.0 °F - 55.0 °F 100% 30.02 in 0.2 mi SE 5.8 mph - N/A Fog Fog
2:53 PM 57.0 °F - 55.9 °F 96% 30.01 in 0.2 mi South 4.6 mph - 0.00 in Fog Fog
3:31 PM 57.2 °F - 57.2 °F 100% 29.99 in 1.2 mi South 5.8 mph - N/A   Overcast
3:40 PM 59.0 °F - 57.2 °F 94% 29.99 in 1.5 mi South 6.9 mph - N/A   Overcast
3:50 PM 59.0 °F - 57.2 °F 94% 29.99 in 1.8 mi South 6.9 mph - N/A   Overcast
3:53 PM 59.0 °F - 57.9 °F 96% 29.99 in 1.8 mi South 6.9 mph - N/A   Overcast
4:07 PM 59.0 °F - 57.2 °F 94% 29.99 in 2.0 mi South 5.8 mph - N/A   Overcast
4:23 PM 59.0 °F - 57.2 °F 94% 29.99 in 1.8 mi South 6.9 mph - N/A   Overcast
4:39 PM 59.0 °F - 57.2 °F 94% 29.99 in 1.8 mi South 9.2 mph - 0.00 in   Overcast
4:44 PM 59.0 °F - 59.0 °F 100% 29.99 in 1.8 mi South 9.2 mph 18.4 mph 0.00 in   Overcast
4:53 PM 59.0 °F - 57.9 °F 96% 29.99 in 2.0 mi South 9.2 mph - 0.00 in   Overcast
5:05 PM 59.0 °F - 59.0 °F 100% 29.98 in 2.5 mi South 8.1 mph - N/A   Overcast
5:07 PM 59.0 °F - 59.0 °F 100% 29.98 in 3.0 mi South 8.1 mph - N/A   Overcast
5:35 PM 60.8 °F - 59.0 °F 94% 29.98 in 5.0 mi South 9.2 mph - N/A   Overcast
5:53 PM 61.0 °F - 57.9 °F 90% 29.98 in 6.0 mi South 8.1 mph - N/A   Overcast
6:53 PM 61.0 °F - 57.9 °F 90% 29.97 in 7.0 mi South 8.1 mph - N/A   Overcast
7:16 PM 60.8 °F - 57.2 °F 88% 29.96 in 7.0 mi South 11.5 mph - N/A   Scattered Clouds
7:53 PM 60.1 °F - 57.0 °F 90% 29.97 in 7.0 mi South 10.4 mph 18.4 mph N/A   Partly Cloudy
8:53 PM 59.0 °F - 55.9 °F 90% 29.96 in 7.0 mi SSW 9.2 mph - N/A   Clear
9:53 PM 59.0 °F - 55.9 °F 90% 29.94 in 10.0 mi SSW 9.2 mph - N/A   Scattered Clouds
10:53 PM 60.1 °F - 55.9 °F 86% 29.93 in 10.0 mi SSW 12.7 mph 21.9 mph N/A   Scattered Clouds
11:53 PM 59.0 °F - 55.0 °F 87% 29.93 in 10.0 mi SSW 10.4 mph 20.7 mph N/A   Mostly Cloudy